Theta_e
302 300 300 299 299 298 297 296 295 295 293 292 292 291 290 290 289 287 285 285 285 285 285 285 285 284 285 284 285 284 284 283 282 282 283 283 283 283 284 284 285 283 283 283 282 282 282 283 283 283 282 282 282 283 283 283 282 283 284 286 287 289 289 288 286 285 287 289 288 287 288 288 287 288 287 288 288 289 290 290 290 290 290 290 290
299 298 298 298 298 296 295 294 293 292 291 290 289 288 287 287 285 285 286 283 284 285 285 283 283 284 285 284 284 283 283 283 282 283 284 284 284 284 284 284 284 284 282 283 283 282 281 282 283 282 282 282 282 282 282 282 282 282 282 282 284 283 285 287 285 285 284 286 286 287 287 288 286 288 287 286 287 288 288 289 289 289 289 290 290
297 297 296 295 294 293 291 289 288 288 288 287 287 286 286 285 285 286 285 284 282 284 284 284 284 284 284 283 283 283 283 283 282 283 283 284 284 283 283 283 283 283 283 283 283 282 282 282 282 282 282 282 282 282 281 281 281 281 282 282 282 282 282 284 284 283 283 283 285 285 285 286 286 286 287 288 288 288 288 288 288 289 289 289 289
294 294 293 291 290 289 288 287 287 287 287 287 286 285 285 285 284 285 284 284 284 282 283 283 283 283 283 283 283 283 283 283 283 282 283 283 283 283 283 282 282 282 282 283 282 282 282 282 282 282 282 281 281 282 281 281 281 281 282 282 281 282 282 282 283 283 283 282 284 284 285 285 286 287 288 287 287 287 287 288 288 288 289 289 289
292 291 290 288 287 287 286 287 287 287 286 286 285 285 284 284 284 284 284 284 283 283 282 281 283 283 284 283 283 283 283 283 283 283 282 280 282 282 282 282 282 282 282 282 283 282 282 281 282 282 282 281 281 281 281 281 281 281 281 282 282 282 282 282 282 283 283 282 283 285 286 285 286 287 287 286 286 286 287 287 287 288 288 288 289
289 288 288 287 287 286 286 286 287 286 286 285 285 284 284 284 283 282 283 283 282 282 282 282 283 283 282 282 282 282 281 282 282 282 282 282 281 281 281 281 281 282 282 282 282 281 281 282 282 281 281 280 280 281 281 281 281 281 281 281 281 282 282 282 282 282 283 283 283 283 284 284 284 285 287 286 285 285 286 287 287 287 286 286 286
287 288 287 287 287 286 286 286 286 286 285 285 284 284 283 283 283 283 282 283 283 282 282 282 281 282 282 282 282 282 282 282 281 280 281 281 281 281 280 280 281 280 281 282 281 281 281 281 281 281 281 281 281 280 280 280 281 280 280 281 281 281 281 281 281 282 282 283 283 284 284 285 285 284 286 287 287 286 284 283 284 285 286 285 285
287 287 287 287 287 286 286 285 285 285 284 284 283 283 283 282 282 281 282 282 282 282 282 282 281 281 281 281 281 280 281 281 280 280 280 280 280 280 280 279 280 280 280 280 280 280 281 281 281 281 281 281 280 280 281 280 281 280 281 280 281 281 280 281 282 282 282 282 282 282 283 284 284 285 285 285 284 284 285 283 281 282 283 285 286
287 287 287 287 286 286 285 285 284 284 283 283 283 283 282 282 281 282 281 281 281 281 281 281 281 281 280 281 280 280 281 281 281 281 281 281 280 280 280 280 280 280 280 280 280 280 279 279 280 280 281 282 284 284 284 284 282 281 281 281 280 281 281 282 282 282 282 282 282 283 282 282 282 282 282 282 282 281 282 283 282 283 284 284 284
287 287 287 286 286 285 285 284 283 283 283 283 283 282 282 281 282 281 281 280 280 280 280 280 280 280 280 279 279 280 280 280 284 288 288 283 282 280 280 280 279 279 280 279 279 279 279 279 280 282 282 283 283 284 284 285 285 284 282 282 282 282 282 282 282 282 282 281 281 281 280 280 281 282 282 282 282 282 282 282 281 282 283 282 283
287 287 286 286 285 284 284 283 283 283 282 282 282 281 281 281 281 281 280 280 280 279 280 279 279 279 279 279 279 279 280 281 287 287 288 288 283 281 280 280 279 279 279 278 278 278 278 279 279 280 280 281 280 283 284 284 284 285 285 285 285 284 282 282 282 282 281 280 281 281 280 280 281 282 281 282 282 282 282 282 282 282 281 279 278
287 286 286 285 284 283 283 283 282 282 282 282 281 280 280 280 280 280 280 279 279 279 279 278 278 278 278 278 278 278 278 284 286 287 287 287 288 283 280 279 279 279 278 278 278 278 278 278 278 279 279 279 280 280 281 283 283 284 284 284 284 285 285 283 281 280 280 280 279 280 280 280 281 281 281 281 281 281 282 283 282 281 280 280 280
285 285 284 284 283 283 283 283 282 282 281 281 280 280 280 280 279 279 279 278 278 278 277 278 277 277 277 277 277 277 277 284 285 286 286 287 287 284 279 278 278 278 278 277 277 277 277 277 277 278 279 280 280 279 279 279 282 283 284 284 284 284 284 285 285 283 282 281 280 280 280 280 280 281 282 282 283 281 282 281 282 282 281 281 281
285 284 284 284 283 283 283 282 282 281 280 280 280 280 280 279 278 277 277 276 277 276 275 277 277 277 277 277 277 277 276 283 285 285 285 286 286 283 278 277 277 277 277 277 277 277 277 277 277 277 277 278 278 278 279 280 281 282 282 281 281 282 283 284 284 284 284 282 281 280 282 282 281 282 283 284 282 281 281 280 282 281 281 281 283
284 284 284 283 283 282 282 282 281 281 280 280 280 279 279 277 277 276 276 276 276 276 276 275 276 275 276 275 276 276 278 283 284 284 285 285 285 282 277 278 277 276 277 276 276 276 276 277 276 276 277 277 278 280 280 281 281 281 281 281 281 281 281 281 281 281 282 282 282 282 283 283 283 284 284 285 284 284 283 283 283 283 283 284 284
284 284 284 283 282 282 282 281 281 280 280 279 279 278 278 277 277 275 274 275 274 274 274 275 275 274 274 274 275 275 276 282 283 284 284 284 284 279 276 276 276 276 276 276 276 276 276 276 276 276 276 276 279 282 283 282 282 281 281 281 281 281 281 283 284 284 283 283 283 283 284 285 286 285 285 285 285 285 284 284 284 283 282 281 280
284 284 284 283 282 282 282 281 280 280 279 278 278 277 276 275 275 274 275 275 275 274 274 273 273 273 273 274 275 276 275 279 281 283 283 284 282 274 274 273 273 275 275 276 276 276 276 276 276 276 276 276 279 283 284 283 281 280 280 280 280 280 280 281 283 284 285 286 286 286 286 286 287 287 287 288 286 286 283 282 281 282 280 278 279
284 284 284 283 282 282 281 281 280 278 278 278 277 276 275 274 274 274 275 275 274 273 272 273 273 273 273 274 276 276 276 278 280 282 282 283 282 275 273 272 272 273 273 276 277 276 276 278 278 276 276 276 281 283 283 282 280 280 279 279 279 278 278 279 281 282 285 285 285 284 285 285 286 286 287 287 287 286 283 280 281 281 279 279 277
284 284 284 283 282 281 280 280 279 278 277 277 276 275 275 274 273 272 273 273 272 273 273 274 274 274 274 275 278 276 275 276 279 281 282 282 280 274 274 271 272 275 276 276 276 276 276 277 278 278 278 280 282 283 283 282 280 280 279 279 278 277 278 280 281 281 281 280 280 281 281 283 283 283 284 286 286 285 284 283 282 279 277 276 276
284 284 282 281 280 279 279 278 277 277 276 275 275 275 274 273 272 272 272 272 272 273 274 275 275 275 275 275 275 275 275 274 276 280 281 281 281 278 274 273 274 275 276 276 275 275 276 275 277 279 280 281 282 283 282 283 280 280 279 278 277 277 280 281 281 280 279 279 279 280 280 282 283 283 283 283 284 284 283 281 280 278 276 275 275
283 282 281 279 278 277 276 276 276 275 275 275 274 273 273 273 272 272 272 273 273 274 274 274 274 274 275 275 274 274 274 273 273 278 280 280 280 279 275 275 276 276 276 275 275 275 274 275 275 278 280 282 282 282 282 282 281 279 279 278 279 281 282 279 279 280 279 279 279 280 281 282 282 282 282 282 283 282 281 279 278 277 275 274 273
281 280 278 277 276 275 275 274 274 274 273 273 273 272 271 272 273 273 273 274 273 273 273 273 273 274 274 274 273 273 273 275 272 276 278 279 279 280 277 277 278 277 275 275 275 274 275 275 275 278 281 281 281 281 281 281 281 278 278 282 282 282 279 279 279 279 278 278 279 279 280 280 280 280 280 280 280 280 278 276 276 275 274 274 273
279 278 276 275 274 274 273 273 273 273 272 273 273 272 272 272 273 273 273 273 273 272 272 272 272 272 272 272 272 272 271 270 275 272 276 278 279 279 279 278 279 277 275 274 274 274 275 276 277 279 280 280 280 280 280 280 279 279 282 282 281 281 280 278 278 277 277 278 278 278 278 278 279 278 277 278 278 278 276 275 274 273 274 274 274
277 276 275 274 273 273 272 272 272 272 272 272 272 272 272 272 273 273 273 272 272 271 271 271 271 271 270 271 271 271 270 268 272 275 274 277 278 278 279 279 279 277 276 275 275 275 275 276 278 280 279 279 279 279 279 279 279 280 280 280 280 279 277 277 276 276 277 277 277 276 277 277 276 276 277 277 277 276 275 273 273 273 274 273 274
276 275 274 273 272 272 271 271 271 270 271 272 272 272 272 272 271 271 272 272 271 271 270 270 270 270 270 270 270 270 268 267 267 272 275 276 277 278 278 278 278 278 276 275 276 276 278 279 279 278 277 277 278 278 277 278 279 279 279 279 277 276 276 275 276 276 276 275 275 275 275 275 276 276 277 277 276 275 273 272 273 273 273 273 273
275 274 273 272 271 271 271 270 270 271 272 273 273 273 272 272 272 271 271 271 271 270 270 269 269 269 269 269 268 267 266 266 268 271 274 275 276 276 277 277 277 277 277 276 277 278 278 277 276 276 275 275 275 275 275 275 277 277 277 276 275 275 275 275 276 275 274 273 273 273 273 275 276 276 277 276 274 273 272 271 271 271 271 271 271
275 273 272 271 271 271 271 271 271 271 272 272 272 272 272 272 272 271 270 270 270 269 269 269 268 268 267 266 265 264 264 265 268 271 273 274 275 275 275 275 276 276 275 275 276 275 274 273 273 275 274 276 276 276 275 274 272 271 271 272 273 274 275 275 274 273 272 272 272 273 274 275 276 276 274 273 272 272 272 271 270 270 270 270 270
274 272 271 271 271 271 271 271 271 271 270 270 270 270 270 271 271 271 270 270 270 269 268 268 268 267 266 263 262 262 263 265 268 271 273 274 274 275 275 275 274 274 273 274 274 272 270 272 271 269 270 270 270 270 269 269 269 269 269 270 272 273 274 274 274 273 273 273 273 274 274 274 274 273 273 272 271 271 271 270 270 269 270 269 268
273 271 271 271 271 271 271 271 271 270 270 270 270 270 270 269 270 270 269 268 269 269 268 268 267 264 263 263 263 264 265 267 269 275 275 276 275 274 274 274 274 273 275 276 272 268 266 266 267 267 267 267 267 266 266 266 266 267 268 268 270 271 272 271 270 270 271 271 271 272 272 273 273 273 272 271 270 270 270 269 269 268 269 269 267
271 271 271 271 271 271 270 270 270 269 268 268 268 268 270 272 270 269 269 271 274 274 273 266 266 264 263 262 265 266 267 269 274 275 276 276 276 276 276 276 275 274 275 274 271 263 264 264 265 265 265 264 264 264 264 264 264 265 266 268 269 269 269 269 269 270 270 270 271 272 272 272 271 271 270 270 269 269 269 269 266 267 267 267 266
272 271 271 271 271 270 270 269 268 268 268 268 269 269 270 272 275 275 274 274 276 277 276 276 275 273 269 264 267 275 273 274 274 275 275 275 275 275 274 274 275 274 273 268 263 262 262 263 264 264 264 263 263 263 264 264 264 264 264 266 267 268 267 267 268 268 269 270 271 272 272 272 271 270 269 269 269 267 266 266 266 266 266 266 266
272 272 271 270 270 269 269 268 268 267 267 268 269 270 270 269 270 274 275 276 277 277 275 275 275 274 274 272 269 268 272 274 274 274 274 274 274 273 273 273 273 272 270 269 261 261 262 262 262 262 262 262 262 263 263 263 263 263 264 265 265 266 265 265 267 267 268 270 270 271 271 271 270 270 269 269 268 266 265 265 265 265 266 266 266
272 270 270 269 269 268 268 267 267 266 266 266 267 269 269 268 267 268 270 275 277 275 274 274 274 273 274 274 274 272 272 273 273 273 273 273 272 271 271 272 272 271 268 261 258 259 260 260 260 260 261 260 261 261 262 262 262 262 263 264 263 264 264 265 266 266 268 269 270 270 270 270 270 269 269 268 267 265 265 264 264 265 265 265 265
270 270 269 269 268 268 268 267 267 266 266 267 268 268 269 269 268 268 268 268 269 269 272 271 272 273 273 272 272 272 272 273 272 272 272 272 271 270 269 266 270 269 265 258 258 258 259 259 260 259 259 260 260 260 260 261 261 262 262 263 263 263 263 264 264 265 266 268 268 269 270 270 270 269 268 268 267 265 264 264 264 264 264 264 264
267 267 267 267 268 268 268 268 267 266 265 266 266 266 266 266 266 267 267 267 266 265 263 263 268 271 267 268 270 271 272 272 271 271 271 270 269 269 266 258 257 258 259 258 258 257 258 258 257 258 258 258 259 259 259 259 260 261 261 261 261 261 262 262 263 264 265 266 268 268 269 270 269 269 268 267 266 265 265 264 264 264 264 264 265
266 266 267 267 267 267 266 266 266 265 265 265 265 265 265 264 265 266 266 266 265 264 262 262 261 266 269 269 270 270 271 271 270 270 270 269 267 266 256 256 256 256 257 256 256 257 258 257 257 257 257 257 258 258 258 259 259 260 260 260 260 260 260 261 262 263 264 265 267 268 268 269 269 269 267 266 265 265 265 265 265 265 264 264 265
265 266 266 266 265 266 265 264 264 264 265 263 263 263 264 264 264 264 263 263 263 262 261 260 259 259 264 262 265 267 270 269 269 269 268 267 266 260 255 256 254 255 256 255 256 257 255 255 255 255 256 256 257 257 258 258 259 259 260 260 259 259 260 261 262 262 262 264 265 266 267 268 269 268 267 265 264 265 265 265 265 265 264 265 265
264 265 265 264 264 264 263 263 262 264 264 263 263 263 263 263 263 263 262 262 262 261 260 259 261 259 260 260 265 263 263 267 266 265 264 263 259 255 255 256 256 254 255 255 256 255 254 255 254 255 255 256 256 256 257 257 258 258 258 258 259 259 262 261 261 261 263 263 264 265 266 267 268 268 267 265 264 264 265 265 264 263 263 264 264
262 264 265 265 264 263 263 262 262 263 263 263 263 263 263 263 262 262 262 261 262 261 260 259 259 259 260 261 260 262 261 256 255 254 254 253 254 253 252 253 253 254 255 254 255 255 254 254 255 255 255 255 256 256 256 257 257 257 258 258 258 259 259 259 260 261 262 262 263 264 265 266 268 268 267 265 264 265 265 264 263 263 263 262 261
262 262 264 265 264 264 263 262 263 263 263 263 263 263 263 263 262 262 261 261 261 260 259 259 259 259 260 260 261 259 256 255 254 253 252 253 254 254 252 252 253 253 253 253 253 253 253 253 254 254 255 255 255 256 257 257 257 257 258 258 258 258 259 259 260 260 261 262 262 263 264 265 267 267 267 266 265 265 265 264 264 264 263 261 261
263 263 263 265 264 263 262 262 262 263 263 263 263 263 263 263 262 262 261 261 261 260 260 260 259 259 259 261 265 264 258 255 254 254 254 255 255 254 252 251 252 252 253 254 254 253 253 253 254 254 254 254 255 256 256 257 257 257 257 258 258 259 259 260 260 261 261 262 262 263 263 265 266 267 266 266 267 265 265 265 263 263 262 261 261
262 262 262 263 264 263 263 262 263 263 263 263 263 263 262 262 262 261 261 261 261 260 260 259 259 258 260 265 265 267 259 254 255 255 255 254 254 253 253 251 250 250 251 251 251 253 253 254 255 254 254 254 255 255 256 256 257 258 258 258 259 259 260 260 261 261 261 261 261 262 263 264 266 267 267 267 265 264 264 263 263 262 261 261 261
262 262 262 263 263 263 263 263 263 262 263 262 262 263 262 262 262 261 261 261 260 260 259 259 259 258 259 264 265 266 259 255 257 255 253 253 252 253 253 252 250 250 250 251 251 251 253 253 254 254 254 254 254 255 256 257 257 258 259 259 260 260 260 261 261 261 261 261 261 262 263 264 265 265 266 266 265 265 264 263 262 262 262 261 261
262 262 262 263 263 264 264 264 263 263 262 263 262 262 262 262 261 261 261 260 260 260 260 260 259 259 258 260 261 259 254 252 252 252 253 254 253 253 252 250 249 249 249 249 249 250 251 252 253 253 253 254 254 253 255 256 257 257 258 259 259 260 261 261 261 261 261 261 261 262 262 263 264 265 265 265 265 265 264 263 262 262 262 261 261
260 261 261 261 262 262 262 262 262 263 263 262 262 262 262 261 261 261 261 260 260 260 260 259 259 259 258 257 255 255 253 252 254 254 254 254 253 253 251 250 249 249 249 249 249 249 249 251 251 251 253 253 253 254 254 255 255 256 258 259 259 260 261 261 262 262 262 261 261 261 262 262 263 264 264 265 265 264 263 263 262 262 262 261 261
260 260 261 261 261 261 261 261 261 262 262 262 261 261 261 261 261 260 260 260 260 259 259 259 258 258 257 257 256 256 256 255 255 255 254 253 252 252 250 249 249 248 248 249 249 249 250 250 251 251 252 252 253 253 254 254 255 255 256 258 259 261 262 263 263 262 261 261 260 261 261 262 263 263 264 264 264 263 263 262 262 262 262 261 261
259 260 260 261 261 261 261 262 262 261 262 261 261 261 261 261 260 260 260 259 259 259 259 258 258 257 258 257 257 256 256 256 255 254 254 254 252 251 251 250 251 250 249 249 249 250 250 251 250 250 251 252 252 253 253 254 254 255 256 257 259 260 262 263 263 262 261 261 261 260 261 261 262 263 263 263 263 263 263 262 262 262 261 261 261
259 260 260 261 261 261 261 262 261 261 261 261 261 261 261 261 260 259 259 259 259 259 259 258 258 257 257 257 257 256 256 255 255 255 254 253 252 252 252 252 252 252 250 250 249 249 249 249 250 250 250 251 252 252 253 253 253 254 254 256 258 260 262 263 263 262 262 261 260 260 260 260 261 262 262 262 262 262 262 261 262 261 261 261 261
259 259 260 260 260 261 261 261 261 261 261 261 261 261 261 260 259 259 259 259 259 259 259 258 258 257 257 257 256 256 255 255 255 254 254 254 253 252 252 252 252 252 251 250 250 249 249 249 250 250 250 250 251 251 252 253 253 253 254 255 257 260 262 263 262 262 262 261 260 259 259 259 259 260 261 262 262 262 262 261 261 261 261 261 261
258 259 259 260 260 260 261 261 261 262 262 261 261 260 261 260 259 259 259 259 258 258 258 258 258 257 256 256 256 255 255 255 254 254 254 254 253 252 252 252 251 251 250 249 249 249 248 246 247 248 249 250 250 251 251 252 252 253 253 255 259 261 262 262 263 262 262 261 260 258 258 258 258 259 259 260 260 261 261 261 261 261 261 260 260
258 258 259 259 259 260 260 260 261 261 261 261 261 260 260 260 259 259 259 258 258 258 258 257 257 256 256 256 256 256 255 255 255 254 254 254 254 253 252 252 252 250 249 249 249 249 247 247 247 249 249 251 251 251 251 252 251 252 255 258 260 261 261 262 262 262 262 261 258 257 257 257 257 258 258 258 258 259 260 260 260 260 260 260 260
Wind_Speed
7 7 7 7 9 9 8 8 8 8 8 7 8 7 6 7 6 6 5 5 5 6 6 6 5 5 6 5 6 5 5 5 4 4 5 4 4 4 4 5 5 5 5 6 4 4 4 5 5 5 4 4 5 5 5 5 4 4 4 4 5 4 6 9 12 16 19 14 10 13 14 11 15 13 12 12 14 13 12 11 13 13 13 11 13
7 7 6 7 8 8 8 7 8 7 8 7 8 7 6 6 6 6 6 4 4 6 6 5 5 6 7 6 5 5 5 4 3 4 5 5 5 4 5 6 6 5 4 6 6 4 4 5 6 5 4 4 5 5 5 5 5 6 5 4 5 5 3 7 10 13 19 19 18 14 15 8 14 12 12 13 15 16 18 16 11 12 13 13 13
6 7 7 7 8 8 8 7 7 8 9 7 8 8 7 6 5 7 7 5 4 5 6 6 6 6 6 5 5 5 4 4 4 5 5 5 5 5 4 5 5 5 6 6 6 5 6 5 6 5 5 6 6 5 4 5 4 5 7 4 6 6 4 5 9 13 16 19 18 18 15 13 14 16 13 11 13 13 18 18 16 13 14 15 15
6 7 7 7 7 8 8 7 8 8 9 8 9 7 7 6 5 6 6 6 7 4 4 5 5 6 6 5 5 5 5 5 5 5 5 4 4 4 4 4 4 4 4 5 6 6 6 7 7 6 6 7 7 7 5 4 5 6 7 6 5 7 6 5 7 10 12 16 18 14 14 11 17 13 13 12 12 12 11 15 14 15 15 15 14
7 7 8 9 7 8 8 8 9 8 9 8 8 7 7 7 5 6 7 6 5 6 4 4 5 5 6 5 5 6 5 4 5 5 4 3 3 3 3 3 4 4 4 4 5 5 6 6 7 7 6 7 8 7 8 8 7 6 8 8 7 7 7 6 8 8 11 16 17 15 14 16 14 15 11 12 14 13 11 14 13 14 13 11 12
7 8 8 9 8 8 8 7 8 9 9 8 8 7 7 6 6 4 5 7 5 4 6 4 5 6 5 5 5 5 4 5 5 4 4 4 4 4 4 4 4 4 4 4 4 4 5 6 6 6 6 6 8 8 7 8 8 7 8 9 8 8 8 8 7 9 10 13 14 17 13 16 16 13 15 14 14 15 12 12 13 12 13 16 13
7 8 7 8 8 8 8 8 8 8 8 8 7 6 6 6 6 6 4 6 6 6 4 6 4 6 5 5 5 4 5 4 4 4 4 4 3 4 4 4 4 4 4 4 5 4 5 5 5 5 6 6 7 8 9 8 7 7 7 9 9 8 9 8 8 10 11 12 13 12 14 13 12 17 13 10 14 13 16 14 12 11 13 14 18
7 7 8 8 8 8 7 7 8 7 7 6 6 6 6 5 5 5 5 6 6 5 6 6 5 6 5 5 4 4 5 5 4 4 3 3 3 4 3 3 4 4 4 4 4 4 4 4 5 5 5 6 6 7 7 8 7 7 6 6 8 9 10 9 9 9 10 11 12 12 10 13 12 9 11 12 13 10 8 12 16 18 14 14 13
7 8 7 8 8 7 7 6 6 7 7 7 7 6 6 6 5 5 5 6 5 5 5 5 6 6 5 5 5 4 5 4 3 3 4 4 4 4 3 4 4 5 5 5 4 4 4 4 4 5 6 10 12 11 10 10 8 9 8 6 7 9 10 10 9 9 10 10 13 9 11 13 12 13 13 12 12 14 16 13 16 14 16 14 12
9 8 9 8 8 7 7 7 7 7 7 8 7 7 7 6 6 6 6 5 5 5 6 6 6 5 5 5 4 4 4 3 5 9 7 4 4 3 3 3 3 4 5 6 5 4 5 5 5 9 11 11 11 12 14 14 13 10 9 9 9 10 10 11 10 9 10 13 11 12 14 15 13 12 12 13 13 14 14 13 14 15 13 14 14
9 9 9 8 8 8 8 7 7 8 7 7 6 7 7 6 6 6 6 5 6 5 6 7 6 4 5 4 4 4 3 3 9 9 10 10 5 3 3 4 4 4 4 4 6 6 5 5 6 7 8 8 7 11 15 16 16 17 18 17 14 11 11 12 12 11 12 11 12 12 11 14 14 13 14 16 13 15 16 14 15 15 14 15 17
9 9 8 8 8 8 8 8 8 7 7 7 7 6 6 7 6 6 6 6 5 5 7 6 5 4 4 4 4 4 4 6 9 9 9 9 7 4 3 4 4 4 4 4 5 5 6 6 5 5 5 7 8 8 10 14 16 17 18 17 17 16 16 13 12 12 11 13 13 13 12 11 15 14 12 11 14 15 13 13 13 16 14 14 13
8 8 7 8 8 8 8 9 8 8 7 7 7 7 7 7 6 6 6 4 4 6 5 5 5 3 4 4 4 3 3 6 9 9 9 9 9 6 3 3 3 3 4 4 5 5 5 6 6 5 5 10 8 8 8 9 13 17 17 17 16 16 16 19 20 15 13 13 14 14 13 14 14 13 13 14 15 16 16 14 14 13 16 16 15
8 8 8 8 8 8 8 9 9 8 7 7 7 7 7 7 5 4 5 4 5 5 4 5 4 4 4 4 4 4 4 7 10 10 9 9 8 7 2 3 3 3 4 5 4 5 5 6 6 6 5 6 7 9 9 10 11 11 10 9 9 11 15 17 19 20 16 13 13 14 13 13 13 16 16 15 16 17 17 17 16 19 16 15 18
8 9 9 8 8 8 8 8 9 8 8 7 7 7 7 6 6 4 5 5 5 5 4 4 4 4 4 4 5 5 4 9 9 9 9 9 9 6 3 3 3 3 4 4 5 5 5 5 4 5 6 6 7 11 13 13 13 12 12 12 11 9 8 9 10 10 10 10 12 13 15 15 15 16 15 13 16 15 14 18 18 16 18 17 16
9 9 10 10 10 9 9 9 9 9 8 7 8 8 7 7 7 5 5 4 3 4 3 4 4 4 4 4 5 6 4 9 9 9 9 9 9 4 3 3 3 3 4 4 4 5 4 5 5 6 6 6 10 19 18 15 12 14 15 14 14 11 9 10 17 17 16 15 14 15 14 17 22 20 20 18 16 16 16 14 13 13 14 15 15
11 11 11 11 10 10 9 10 10 9 8 9 9 8 8 7 5 4 6 5 5 4 4 4 3 4 4 4 5 4 3 7 8 9 10 11 6 3 3 3 3 3 4 4 4 4 4 4 6 7 6 6 12 20 21 21 12 12 14 15 13 14 12 12 16 21 23 25 26 27 28 29 28 29 29 31 23 20 16 14 14 14 15 12 12
11 11 11 11 10 9 9 9 10 9 9 10 9 7 5 4 4 4 7 7 6 4 4 5 4 3 4 4 4 4 3 5 8 9 10 11 8 4 3 3 3 3 3 4 4 4 4 9 9 7 8 8 16 20 21 17 11 11 12 14 16 15 14 12 12 13 21 23 25 26 25 23 24 25 24 24 25 21 15 16 16 15 13 14 13
11 12 11 9 9 8 8 8 8 10 9 8 8 9 7 7 5 5 5 5 5 4 4 6 5 4 3 4 5 4 2 4 8 10 10 10 7 2 4 3 4 4 5 5 5 5 6 7 11 12 11 14 22 21 23 17 11 10 11 11 13 15 13 12 14 15 16 19 18 18 17 18 16 14 14 23 23 21 13 11 12 13 15 14 14
10 7 7 8 8 8 7 8 7 9 9 8 7 7 6 7 6 6 5 5 6 5 5 5 6 4 4 4 4 3 3 4 6 10 9 9 10 5 3 4 6 7 7 7 8 5 5 6 7 14 18 20 22 22 21 21 13 10 9 10 11 13 11 14 14 16 16 15 15 15 16 15 15 13 12 12 13 10 11 12 12 11 12 14 14
9 9 8 8 7 7 6 7 9 6 6 9 8 7 5 7 7 6 7 6 6 6 6 5 6 5 4 3 3 3 4 5 5 8 8 8 9 7 2 4 5 6 6 7 7 8 7 5 6 13 20 23 23 23 22 21 18 11 9 8 10 16 19 13 17 22 14 14 15 14 13 11 11 11 11 11 11 11 12 11 11 10 9 10 12
9 9 9 8 7 7 7 6 6 7 7 8 9 7 4 5 6 6 6 7 8 7 6 5 6 5 3 2 3 4 4 4 3 6 7 8 8 9 5 4 6 6 7 6 7 6 7 7 6 13 22 22 21 22 23 21 22 10 10 18 23 23 16 12 11 11 11 11 11 11 11 11 12 12 11 11 10 11 11 11 10 10 8 8 9
9 9 8 8 7 8 7 8 8 7 7 7 9 9 6 6 6 6 8 7 8 8 7 6 6 5 3 2 3 2 2 2 5 3 6 7 8 8 10 7 11 6 6 7 8 8 7 8 8 18 22 22 20 21 21 23 16 12 22 22 22 24 17 9 11 10 10 11 11 11 13 12 11 12 12 12 11 11 11 11 11 10 10 9 8
9 9 8 8 8 7 7 7 7 6 7 8 7 9 8 6 6 6 6 7 8 8 7 7 6 5 5 3 1 1 1 1 4 4 4 7 7 8 9 10 11 7 6 6 8 9 9 9 12 22 21 21 21 20 20 18 13 21 22 23 22 19 10 10 10 10 11 11 12 11 11 10 12 10 12 12 12 13 12 11 10 10 9 9 9
10 10 9 8 8 7 7 7 7 7 7 8 9 8 8 8 8 5 6 5 6 7 5 6 6 5 5 3 2 0 1 1 2 4 4 5 7 8 9 10 10 12 6 5 7 7 13 19 21 20 20 20 20 19 14 14 20 20 21 21 18 8 10 9 10 10 11 12 13 12 12 11 10 11 12 13 13 11 9 10 10 9 8 7 7
11 11 9 8 8 8 9 7 6 6 7 5 6 7 9 8 8 8 6 6 6 7 7 6 6 6 5 4 2 1 1 1 2 3 4 3 5 7 9 10 10 11 11 8 13 15 16 18 19 18 15 15 11 8 8 11 19 20 19 17 9 9 9 10 9 9 11 12 13 13 12 10 12 12 12 11 11 11 11 11 11 11 10 9 7
10 9 9 8 7 8 10 9 8 7 7 6 5 5 6 6 7 7 7 7 6 6 7 7 7 6 6 5 3 2 1 1 2 3 3 2 3 4 5 5 9 9 7 6 7 6 9 10 10 13 11 16 15 13 12 14 12 10 8 8 8 9 9 9 9 10 11 12 13 13 11 12 11 10 10 11 11 10 9 9 9 9 9 8 6
11 10 10 9 9 9 8 8 10 10 8 8 9 8 6 5 7 8 9 9 9 7 7 7 7 7 7 6 4 2 1 1 2 2 2 3 3 3 4 4 4 4 5 5 5 6 5 7 8 5 6 6 7 5 6 6 8 9 9 9 9 9 11 14 12 7 7 8 8 10 10 10 9 11 10 10 10 9 9 8 8 9 7 7 6
9 9 8 8 8 7 7 8 9 10 10 6 4 5 8 7 6 3 1 3 4 8 8 7 6 6 7 7 6 3 3 2 2 3 3 4 4 3 4 4 3 3 6 10 6 4 4 5 5 6 6 7 7 7 7 8 7 7 9 9 9 9 8 8 9 9 10 9 11 10 12 9 10 8 10 9 9 9 8 8 7 7 6 5 5
8 9 8 8 8 8 7 7 7 8 9 9 8 4 1 4 2 4 4 4 6 6 7 4 7 6 6 5 5 4 4 2 2 4 4 5 6 7 6 7 7 5 8 11 7 3 5 5 5 7 7 7 8 9 9 9 10 10 8 10 9 8 9 9 9 10 10 10 10 11 9 10 9 10 9 10 10 8 8 8 7 6 6 6 6
9 8 9 9 9 8 8 8 7 8 9 9 8 7 6 4 7 6 5 6 7 10 10 12 12 9 7 2 2 7 3 1 1 3 3 4 5 5 5 5 7 7 9 6 5 3 4 4 5 6 7 7 8 9 9 10 11 10 10 9 7 10 10 9 10 12 11 10 10 9 11 9 10 10 10 10 10 9 7 6 5 6 6 6 5
11 10 9 7 8 8 6 9 11 11 10 9 7 8 8 8 5 5 6 8 10 11 10 10 9 8 8 8 5 1 3 3 1 2 3 3 3 4 3 5 7 8 9 7 3 4 4 4 4 5 6 7 7 8 9 8 9 9 11 11 11 10 11 10 12 11 11 9 10 11 10 9 10 10 9 9 9 7 6 7 6 6 6 5 5
8 7 7 7 8 8 7 11 12 12 13 11 8 8 9 9 9 7 5 7 10 8 8 8 8 7 8 8 7 5 4 2 3 3 2 2 2 2 3 5 7 8 9 6 4 3 3 3 3 4 5 5 6 7 7 7 8 9 9 10 12 12 11 12 13 11 10 10 11 10 9 10 10 9 8 8 8 7 7 6 6 5 5 5 5
6 7 9 9 10 9 9 8 10 11 12 10 8 9 8 8 8 9 10 7 4 3 5 5 6 6 7 7 5 4 3 3 4 4 2 1 2 2 3 2 6 9 8 3 2 2 2 2 3 3 4 4 5 6 6 7 8 8 9 9 10 10 11 11 10 11 11 11 10 11 10 9 9 9 9 7 6 5 5 6 5 5 5 5 5
4 5 8 6 6 7 7 9 9 9 11 10 8 8 8 6 7 9 11 12 10 9 7 2 2 7 4 4 4 4 3 4 5 3 2 2 2 4 5 3 2 3 4 3 3 2 3 3 3 4 4 5 5 6 6 7 7 8 9 9 9 9 9 10 11 11 11 9 10 9 11 11 9 8 7 7 7 7 6 5 5 5 4 5 5
5 5 5 7 6 6 6 7 7 8 10 10 8 7 6 7 8 7 6 5 6 7 5 4 3 1 4 4 3 2 3 5 4 3 3 4 3 4 2 0 1 1 2 2 1 2 1 2 3 4 4 4 5 5 6 7 7 7 8 8 9 9 10 10 10 10 11 10 10 11 12 10 9 8 7 5 5 5 5 5 4 4 4 4 4
6 6 6 6 6 5 6 6 6 6 5 6 7 6 6 6 4 6 5 6 6 5 6 5 3 1 2 1 1 2 1 5 4 4 4 4 5 4 1 2 2 1 1 0 1 1 3 3 3 4 4 5 5 5 6 6 7 7 8 8 8 9 8 9 10 11 10 10 10 11 11 10 9 8 7 7 6 4 4 4 4 5 5 5 4
5 6 6 5 5 6 6 7 6 6 6 6 6 6 7 7 8 8 8 8 7 8 7 6 5 6 6 5 3 2 0 3 4 4 4 3 2 0 1 2 1 1 1 0 0 0 2 4 3 4 5 5 5 5 5 6 6 7 7 7 7 7 11 11 11 9 9 9 9 10 10 10 9 8 7 5 5 5 4 4 4 4 4 5 4
5 5 6 7 6 6 6 6 7 7 7 7 7 8 8 8 8 8 7 7 7 7 6 6 6 6 6 4 1 2 5 1 1 1 2 2 2 3 2 1 1 0 0 0 0 0 1 3 5 3 4 5 5 5 5 6 6 6 7 7 7 7 8 8 9 8 8 8 9 9 9 9 9 7 6 5 5 4 4 4 4 4 3 3 3
7 6 6 9 6 7 7 7 7 7 7 8 8 7 7 8 9 9 10 11 9 8 8 8 9 8 6 4 4 3 5 3 3 3 2 2 2 3 2 1 0 0 0 1 1 1 1 3 3 4 4 4 5 5 5 6 6 7 7 6 6 8 8 8 8 9 9 9 9 8 9 9 9 8 6 4 4 3 3 3 3 2 2 2 2
5 5 6 7 7 6 5 6 7 7 6 7 7 7 8 7 6 6 8 7 7 7 7 7 7 6 6 7 9 8 6 5 3 3 3 3 4 5 5 3 2 1 1 1 1 2 2 3 5 5 4 4 5 5 5 6 6 6 7 7 6 6 7 7 7 8 9 8 8 8 9 9 8 8 8 6 4 3 2 2 2 2 2 2 2
5 5 6 6 7 8 8 8 8 7 7 7 7 8 8 8 8 8 8 9 8 8 7 8 6 7 7 12 10 10 7 5 4 5 3 4 5 6 4 4 4 4 3 3 3 4 3 3 4 3 5 4 5 5 5 6 6 6 7 7 6 7 7 7 7 8 9 9 9 9 9 9 9 8 8 7 4 3 2 2 1 1 1 1 1
6 6 6 6 7 8 8 8 7 9 9 10 11 5 6 7 7 7 8 7 9 7 9 8 8 7 6 9 9 9 5 5 4 5 4 5 5 5 5 6 6 6 4 4 3 3 4 4 5 5 4 5 4 5 5 6 6 7 7 7 7 7 7 7 8 8 8 9 9 10 10 9 9 8 7 6 4 2 1 1 1 1 1 0 1
6 6 6 6 6 6 6 6 7 8 10 9 8 8 9 9 8 8 8 8 10 5 5 7 8 7 6 5 6 5 5 5 5 5 5 6 5 5 6 5 6 6 5 4 4 3 4 5 5 5 5 5 5 5 5 6 6 6 6 7 7 8 7 7 8 8 8 9 9 9 9 9 9 8 7 7 5 4 1 0 1 1 1 1 0
5 6 6 7 7 7 7 7 7 7 8 7 8 6 8 8 10 10 9 10 6 6 7 7 6 7 6 5 5 6 6 6 6 6 6 6 6 6 5 5 6 6 6 5 3 3 3 5 5 5 6 5 5 5 6 6 5 5 6 7 7 7 7 7 7 7 8 8 8 8 8 8 9 8 7 7 5 4 3 2 2 2 2 1 2
6 6 7 7 7 8 8 7 8 7 7 9 9 7 6 7 8 8 7 7 6 7 7 7 7 7 7 6 6 7 6 6 6 6 7 6 6 5 4 5 6 6 6 5 4 3 4 5 5 6 6 6 6 6 6 5 6 6 6 6 7 7 7 7 6 7 7 7 7 7 8 8 8 7 8 7 6 4 4 2 2 3 3 3 2
6 6 7 7 8 8 8 8 8 9 8 8 8 8 7 7 7 6 7 9 11 8 7 8 8 9 9 9 9 9 7 5 6 6 6 6 4 5 5 4 5 6 6 5 3 3 4 5 5 5 6 6 6 6 6 6 5 6 5 6 6 8 7 6 6 6 6 6 6 6 7 7 7 7 8 7 6 5 3 3 3 3 3 3 3
7 7 7 8 7 8 8 8 10 9 9 9 9 9 9 10 10 11 10 8 6 7 8 9 9 9 7 8 7 7 5 5 5 5 5 5 5 5 4 4 5 6 5 5 4 3 4 4 5 5 6 5 5 6 6 6 6 6 6 6 6 7 10 10 7 6 6 6 6 6 7 7 7 7 7 7 5 5 4 3 1 2 3 3 3
6 7 7 8 8 8 8 9 9 10 10 11 12 12 10 10 10 8 11 12 12 10 9 11 10 9 8 7 6 6 5 5 5 5 5 5 5 4 5 5 5 6 5 5 5 4 4 5 5 5 6 5 6 6 6 6 7 6 6 6 9 15 15 14 9 6 8 7 5 6 6 6 6 7 6 6 5 4 4 2 2 2 2 2 3
6 7 7 7 8 8 7 7 8 8 8 10 13 12 9 9 10 10 12 11 11 11 10 9 9 9 9 9 7 8 6 5 6 6 5 5 5 4 5 5 5 5 6 5 5 4 4 4 4 5 5 5 6 6 6 6 6 7 6 8 13 16 15 15 13 10 8 5 5 5 6 6 6 6 6 5 5 4 4 3 2 3 3 3 3
7 7 7 7 7 7 7 8 8 9 9 11 13 12 9 11 11 11 12 12 11 9 9 10 9 9 9 8 6 6 6 5 5 5 5 5 5 5 5 5 6 5 5 5 5 5 5 4 4 5 5 5 6 6 6 6 6 6 10 15 16 15 15 13 9 8 11 7 4 5 6 6 6 7 6 5 5 4 5 3 3 3 3 3 3
Wind_Direction
130 129 128 127 129 129 128 125 117 114 112 118 119 123 123 119 118 125 113 116 124 114 109 107 107 107 101 84 82 77 71 58 47 65 65 60 46 44 29 33 29 9 8 349 358 360 348 333 319 316 320 320 311 314 314 310 312 298 290 292 285 269 275 280 281 287 293 291 286 289 304 319 309 312 318 318 316 313 306 303 306 304 303 301 299
135 132 127 130 127 124 118 114 118 118 120 122 120 122 120 120 129 119 116 124 121 118 114 118 111 105 95 92 89 85 80 73 53 60 53 42 29 31 26 19 14 356 0 342 336 342 336 326 317 318 320 312 310 312 309 314 315 312 304 292 284 279 250 276 280 286 290 302 302 301 299 311 295 308 316 320 315 316 313 311 306 302 301 302 301
135 131 127 126 124 122 122 125 125 126 123 126 123 123 123 122 126 125 125 123 107 119 128 120 114 108 103 102 96 85 79 76 60 62 55 51 34 17 20 21 9 350 344 332 329 330 334 332 318 321 326 327 317 305 305 303 300 298 298 294 287 281 267 245 278 286 291 293 296 301 303 312 305 309 314 310 306 309 307 309 310 307 303 300 299
131 125 121 120 127 126 128 131 128 131 128 131 127 127 128 127 131 124 127 127 122 119 113 116 110 107 101 93 83 80 66 58 60 61 62 52 44 21 8 10 2 347 332 324 327 334 329 327 322 329 330 325 321 322 320 310 310 307 301 297 286 287 279 261 248 271 285 292 296 303 310 319 310 309 310 308 302 300 296 296 295 295 298 298 297
131 129 131 132 134 132 135 138 135 132 129 130 131 131 135 136 137 136 131 123 122 113 96 98 102 89 87 85 78 69 67 64 59 49 48 53 51 32 12 4 353 341 327 316 315 320 318 313 311 322 327 322 318 323 322 322 318 312 306 304 299 291 288 275 271 266 278 283 291 296 305 301 298 299 305 308 308 302 295 293 297 298 294 288 293
135 135 139 136 139 138 140 137 137 136 134 134 137 141 142 139 137 132 132 122 111 104 110 91 94 92 85 81 82 83 76 71 67 58 45 34 31 24 14 0 347 335 323 316 311 309 308 307 310 315 318 314 309 308 310 311 313 309 304 301 298 294 292 288 277 276 273 279 286 296 298 301 305 299 310 311 306 306 304 303 300 301 304 303 295
143 140 144 140 141 147 145 144 141 140 140 140 139 138 137 137 133 130 126 118 117 111 99 94 72 87 82 80 74 78 77 71 66 53 42 37 34 21 4 353 336 325 309 308 308 307 304 304 308 310 308 304 301 304 307 307 303 299 295 295 296 296 295 294 293 288 282 284 283 278 290 288 291 303 309 306 304 303 307 310 301 299 301 304 303
146 144 145 145 148 150 146 141 141 140 136 136 137 132 130 127 122 121 116 105 102 100 96 93 85 78 79 81 78 79 75 65 53 47 41 37 30 15 10 345 332 320 311 308 308 307 307 307 305 300 296 294 294 294 297 300 301 298 287 283 298 304 303 301 295 289 287 284 283 293 287 295 301 286 298 308 307 301 303 308 306 309 304 301 296
149 149 148 152 154 148 142 139 134 136 138 136 134 134 129 124 118 111 103 99 91 89 86 90 92 82 71 74 73 67 72 65 56 41 40 27 37 17 0 345 332 323 321 322 322 320 315 305 300 297 292 292 292 293 292 298 303 308 308 300 299 299 300 300 295 291 287 287 292 289 295 300 300 307 311 315 315 310 309 305 297 294 299 298 293
154 157 159 157 150 148 144 141 144 142 141 141 140 134 129 126 119 108 99 96 93 90 86 79 79 83 83 72 72 71 67 60 30 36 33 31 23 12 357 335 329 325 322 322 322 323 318 313 305 301 302 301 301 302 311 308 306 304 305 310 309 306 304 302 300 298 299 301 300 308 309 306 308 311 304 300 298 299 298 302 297 302 299 296 292
162 162 160 155 150 145 145 148 146 148 146 137 136 133 130 126 115 107 99 90 90 89 91 83 78 78 86 87 78 73 61 39 35 33 27 21 22 9 3 344 338 329 321 316 318 322 319 315 309 307 306 304 300 302 316 317 314 312 312 310 308 308 310 311 310 311 310 301 302 301 295 295 297 299 298 303 302 300 300 296 294 300 302 305 304
162 163 156 151 150 151 151 149 148 148 145 143 137 132 126 120 113 109 105 96 92 94 84 90 90 90 91 89 79 67 51 29 34 31 25 20 13 33 30 351 328 321 314 316 313 315 314 314 310 305 304 305 310 311 311 315 317 319 318 317 315 311 308 306 308 306 306 303 300 295 295 294 298 302 300 301 299 297 293 294 298 301 300 298 294
160 155 153 153 155 155 156 156 152 149 147 139 136 132 125 115 114 112 107 112 101 88 97 97 96 97 94 88 77 60 57 21 34 31 24 20 16 46 22 342 325 311 313 311 310 309 310 309 309 307 303 311 311 309 309 309 312 311 309 305 302 299 298 303 300 296 295 290 291 293 295 299 295 293 295 294 294 294 296 296 295 294 294 292 292
159 157 156 161 161 161 161 157 152 148 142 139 136 131 124 120 113 109 113 104 101 103 98 99 103 94 89 87 78 64 47 21 32 27 23 17 18 35 359 343 325 316 311 310 307 305 302 306 308 312 311 315 315 314 313 310 308 307 304 302 298 294 298 296 293 292 286 283 285 287 289 286 287 290 291 292 295 294 296 295 295 297 296 292 291
163 164 164 163 164 166 164 158 149 146 144 140 134 129 125 121 117 119 117 121 121 119 118 106 96 93 82 79 78 59 34 27 29 24 21 15 19 26 4 343 331 314 305 296 294 293 295 294 297 303 315 316 312 320 320 319 318 315 312 308 303 294 289 292 296 301 299 293 287 285 288 290 288 291 292 293 292 293 296 294 293 292 290 286 282
168 166 170 172 172 171 164 158 152 148 146 141 137 135 132 135 135 134 115 106 102 109 88 89 92 85 84 81 75 60 27 27 25 23 17 14 19 23 6 350 332 313 300 290 289 290 291 297 305 314 315 314 312 323 326 326 321 318 316 314 313 309 299 304 312 310 305 302 295 291 294 299 304 305 306 306 304 300 298 293 291 287 290 295 295
177 177 176 173 172 171 169 159 155 152 150 145 144 142 139 134 132 132 118 120 116 103 107 96 94 90 83 82 78 71 43 17 21 20 18 12 23 20 359 350 320 301 294 288 286 289 297 307 315 317 316 312 318 328 331 331 322 319 316 313 311 313 314 312 308 306 303 303 305 308 308 309 308 308 309 308 304 302 303 300 296 299 300 299 302
180 180 180 175 170 168 167 161 155 155 154 154 149 141 127 114 132 146 134 134 117 124 122 101 81 79 78 75 81 77 54 13 19 19 19 13 16 24 350 332 311 289 284 290 304 307 303 315 318 316 317 310 326 333 333 332 320 317 313 312 315 318 313 312 311 309 310 313 314 313 309 303 301 304 301 299 300 303 303 301 308 315 317 317 311
182 183 179 169 164 159 158 158 158 155 154 151 147 144 146 143 135 116 113 111 118 120 104 100 93 76 73 73 67 76 69 13 14 20 16 12 14 39 354 325 306 315 328 330 333 321 314 311 317 328 325 327 331 333 333 332 320 316 314 312 313 309 308 311 315 318 323 323 320 319 316 315 312 309 306 310 309 306 309 322 333 332 320 314 311
180 165 154 155 155 153 154 154 157 156 148 138 134 134 132 129 133 124 117 118 118 108 100 101 102 88 72 69 60 84 71 22 8 13 12 9 2 5 345 332 334 338 342 334 328 320 312 311 318 330 330 329 330 331 331 330 325 317 317 313 305 305 312 317 320 322 316 312 309 311 308 309 310 313 314 314 315 326 337 333 331 325 313 307 305
157 155 148 146 147 146 145 154 151 142 139 139 131 126 133 135 133 129 127 121 112 108 107 109 103 96 82 76 67 36 46 29 351 6 6 4 355 355 320 334 328 334 329 322 322 323 324 325 313 325 328 330 331 331 330 330 328 324 313 295 304 315 322 321 319 317 309 309 310 307 307 311 314 315 317 323 327 329 327 328 322 316 311 304 304
144 142 146 145 142 141 143 134 133 134 131 131 129 124 120 124 130 132 128 125 118 114 117 112 114 109 103 98 63 42 18 17 355 356 359 354 349 350 345 337 339 335 323 311 315 314 321 318 309 322 328 330 331 330 330 329 330 322 309 318 323 325 325 316 306 310 311 305 303 307 315 318 316 323 328 323 322 324 326 324 319 314 306 290 288
136 136 137 140 144 143 141 141 139 138 136 137 134 133 138 131 134 134 131 125 119 120 110 117 115 121 122 80 58 40 359 354 352 3 346 344 344 348 347 344 340 337 321 321 325 319 316 312 304 323 330 332 332 332 331 330 328 323 329 332 330 329 327 315 314 309 303 305 310 314 317 317 325 328 322 319 322 326 328 322 316 313 304 295 281
134 136 141 143 141 143 142 136 133 135 140 139 138 140 142 140 137 144 144 135 131 123 120 127 128 127 128 97 53 14 344 353 320 336 344 342 344 344 341 340 337 333 331 323 323 319 314 315 322 329 332 333 333 332 333 332 332 335 335 332 334 334 326 320 312 311 309 314 319 316 319 329 324 316 322 322 324 328 325 321 316 313 306 307 304
142 147 150 152 149 144 136 137 140 142 149 150 149 150 144 150 137 147 144 139 134 132 140 155 144 135 128 142 156 297 312 274 275 289 332 340 341 339 339 338 338 338 332 310 305 308 320 325 329 331 332 332 334 333 329 334 340 337 335 338 338 326 324 317 317 318 325 326 324 323 324 322 316 316 316 319 320 319 321 321 318 316 313 299 302
151 153 153 153 152 147 139 138 142 150 154 163 162 158 158 157 151 146 148 141 142 140 148 154 136 137 144 166 170 202 238 235 255 265 263 328 336 332 337 339 340 339 335 324 323 326 330 333 332 332 332 333 335 337 344 342 341 341 341 339 328 327 324 324 326 331 329 326 325 324 319 312 318 319 320 323 326 330 332 328 328 329 334 330 333
149 150 153 151 151 157 153 157 158 154 143 146 143 151 156 154 148 151 154 149 145 147 152 146 143 149 159 168 184 206 246 257 255 265 260 270 287 311 329 330 337 336 331 317 327 335 342 335 332 336 335 343 347 347 347 345 340 335 331 326 325 327 330 334 336 333 329 324 322 320 317 315 312 317 330 333 331 330 333 325 323 325 330 331 331
157 161 161 162 166 168 165 158 156 148 159 160 152 146 163 169 165 170 169 167 155 163 157 156 161 160 159 164 165 192 242 261 258 249 293 289 288 311 331 322 323 335 328 319 340 353 330 320 321 316 328 348 341 342 345 341 336 332 329 326 325 331 332 333 329 312 307 307 301 303 303 313 322 328 328 331 330 329 334 331 332 327 335 341 360
154 155 161 161 170 171 167 167 169 159 132 151 155 136 148 165 169 143 80 108 176 158 156 155 156 157 144 151 152 178 190 214 249 322 319 333 341 345 330 327 333 325 333 344 360 348 328 334 333 350 350 349 343 339 338 339 342 337 327 323 325 328 333 337 330 330 327 325 325 322 322 322 324 327 329 328 332 335 335 334 337 332 334 359 13
155 168 172 176 174 170 169 167 165 158 149 140 130 119 187 159 144 142 157 194 158 139 140 151 161 149 144 180 175 162 175 209 315 339 330 347 351 351 345 350 350 355 360 10 11 6 354 351 347 351 348 350 345 346 342 343 339 339 336 330 326 328 338 336 331 327 328 328 320 322 324 328 328 332 332 332 328 336 340 345 336 343 355 3 6
172 175 179 188 182 174 165 164 166 152 152 143 149 145 133 150 146 143 158 178 178 155 131 135 146 150 141 153 178 138 135 100 7 320 3 357 356 348 356 5 10 18 17 44 12 23 10 359 355 355 353 348 347 341 341 340 340 334 329 328 328 337 338 335 335 333 328 322 326 325 329 330 331 331 332 332 330 332 337 341 345 355 6 2 10
180 186 184 178 170 175 172 163 148 152 151 159 160 156 150 139 133 148 155 164 157 143 139 139 139 140 148 148 146 126 139 153 131 39 36 349 360 348 15 28 33 37 32 57 65 21 19 6 351 356 353 352 345 339 338 335 333 331 325 329 336 341 339 334 333 326 319 320 329 331 331 333 333 330 328 329 331 332 337 345 356 358 3 3 10
182 178 177 171 172 171 169 171 164 166 162 167 172 172 165 163 154 150 160 175 159 142 151 143 147 151 146 132 122 133 144 130 88 74 45 9 13 6 44 53 56 53 56 48 72 36 11 1 4 355 352 345 334 332 327 330 329 328 329 330 329 331 330 328 325 320 322 329 330 327 330 331 330 327 326 330 335 338 342 347 347 359 3 7 3
186 179 182 182 177 180 180 176 172 172 165 169 175 177 182 175 166 156 152 156 149 140 151 131 153 156 144 129 115 119 117 101 85 77 66 54 44 43 75 58 62 54 73 88 68 63 24 12 1 348 341 331 324 326 325 328 329 325 327 326 324 324 325 325 327 330 327 329 330 329 328 330 331 330 331 333 334 333 342 345 353 5 8 6 4
183 177 177 181 193 189 182 149 167 171 171 184 183 185 182 179 167 170 172 174 177 176 175 164 174 164 132 104 107 123 113 97 91 94 83 72 65 96 83 42 27 356 27 36 49 28 34 355 344 335 333 327 325 327 325 323 324 329 328 326 323 326 326 331 331 329 326 324 327 331 332 330 330 331 331 333 341 348 351 354 353 1 360 357 3
178 177 178 185 188 188 181 179 180 178 183 186 180 180 171 169 178 185 176 164 163 156 148 167 191 323 131 124 137 130 105 100 102 102 97 82 72 120 94 359 67 30 45 353 26 357 4 343 341 322 318 312 318 320 320 319 319 323 322 323 325 326 327 326 330 330 329 325 327 331 331 331 332 331 330 327 338 341 349 352 350 350 357 360 2
184 187 186 190 186 182 176 175 179 181 174 168 169 171 172 177 169 161 161 166 160 157 154 153 121 108 99 49 255 290 113 119 100 105 92 85 81 76 158 181 167 170 141 46 345 351 349 329 320 312 306 309 310 309 311 310 312 313 317 317 315 319 320 323 328 327 324 330 331 332 330 329 331 333 334 332 334 340 347 351 345 352 357 8 14
198 197 194 177 174 175 173 179 177 169 170 172 178 174 170 170 165 161 162 165 167 162 162 171 167 170 168 207 134 147 73 89 86 43 33 36 42 358 245 212 190 157 147 174 238 332 310 301 299 293 299 299 301 303 305 304 309 310 308 311 312 308 317 321 321 318 321 328 329 331 330 328 330 329 330 331 334 339 347 352 352 350 350 7 11
201 196 178 172 178 182 181 175 177 177 179 178 179 174 177 168 161 157 172 168 168 172 170 165 171 178 186 160 208 194 125 81 94 228 245 257 233 213 211 222 190 187 166 171 245 310 285 287 292 295 291 295 297 298 298 301 305 305 303 304 308 312 321 326 326 326 328 331 332 329 326 324 325 326 322 325 334 337 338 343 353 358 6 11 13
192 197 189 179 186 187 186 189 186 183 186 178 181 176 170 177 179 180 152 158 179 179 177 177 180 181 169 156 192 156 147 180 185 211 229 256 250 253 225 216 224 216 233 279 279 273 278 280 278 289 294 299 298 300 300 301 300 298 299 298 307 317 322 324 324 325 328 327 327 327 325 322 321 322 319 322 320 328 335 345 357 14 38 66 79
201 192 188 190 182 179 180 190 199 199 188 187 180 180 188 179 173 172 177 186 180 180 181 181 169 169 170 188 192 186 166 183 202 215 227 230 250 252 257 250 226 240 252 243 267 268 262 268 283 283 288 290 295 299 302 299 297 298 299 301 305 311 316 317 320 323 324 326 325 325 322 317 319 326 328 327 335 344 342 359 9 25 53 71 80
191 193 198 199 184 188 189 198 199 193 189 185 186 190 183 178 180 181 182 180 181 179 177 176 184 184 198 191 204 190 160 178 178 206 237 244 247 257 255 252 244 228 224 234 243 262 277 278 274 279 282 290 296 301 302 300 301 303 303 305 309 312 317 321 323 327 329 328 325 321 318 318 321 322 320 321 324 325 358 17 40 54 77 38 348
196 201 199 193 196 202 206 207 186 176 191 180 174 180 161 180 186 172 158 161 157 171 161 172 173 175 193 199 203 196 143 176 185 201 216 234 245 249 252 250 251 244 235 234 235 235 253 268 274 270 272 275 278 280 285 291 299 301 304 305 308 307 312 317 324 329 332 329 325 321 319 319 320 319 318 314 311 324 17 49 63 81 67 9 345
197 198 200 205 208 209 208 199 200 201 179 193 167 163 173 173 174 176 174 167 178 182 171 165 166 170 176 200 195 178 173 195 198 209 217 230 235 239 245 253 258 262 258 247 246 238 245 260 270 272 266 267 267 266 267 270 278 286 296 301 302 303 307 315 324 329 330 326 320 320 320 319 319 318 318 315 309 303 289 155 162 159 172 147 58
203 204 202 203 204 205 211 207 203 199 191 163 171 182 189 183 177 175 168 167 182 167 141 143 168 159 179 190 183 189 205 205 210 212 222 223 227 234 238 249 251 256 256 255 244 238 244 254 264 272 282 276 271 271 272 273 270 273 279 290 292 298 306 312 316 321 321 318 318 315 315 317 318 320 319 315 308 292 273 219 199 189 183 166 167
204 206 211 216 211 209 203 202 197 196 194 187 170 172 177 153 160 171 177 179 170 166 166 174 163 173 177 184 189 197 207 202 212 220 228 231 228 234 233 237 246 250 251 250 250 237 244 245 257 265 272 277 282 282 278 278 277 275 275 274 282 286 293 297 306 314 317 316 315 311 308 310 313 313 315 313 307 294 273 235 206 203 206 191 187
206 212 217 217 218 217 211 199 193 199 197 195 191 188 188 179 179 184 187 182 177 181 181 176 173 179 181 177 180 196 200 201 212 221 229 234 234 237 243 247 248 256 258 257 250 247 250 256 260 260 267 272 278 280 284 284 282 281 278 281 281 287 287 300 312 310 309 308 307 307 308 309 310 314 316 317 310 300 284 254 233 217 203 193 181
208 213 217 218 218 217 214 203 201 195 194 191 187 187 190 190 189 184 165 167 177 181 178 174 182 182 179 192 193 194 201 204 215 222 232 236 238 239 239 244 249 252 258 263 261 255 254 256 261 263 268 275 279 283 282 286 283 282 283 285 289 288 297 307 312 309 305 308 308 307 305 306 304 308 310 311 309 302 291 269 257 225 203 189 184
213 216 219 216 218 216 212 208 207 208 194 175 183 192 189 169 151 164 172 179 180 183 185 184 182 181 192 192 190 190 196 202 211 223 231 237 237 239 236 240 246 253 253 261 260 258 259 261 261 264 268 274 275 277 281 283 284 286 286 288 291 295 302 311 313 307 313 312 312 312 305 300 303 304 306 306 304 303 292 276 245 227 216 210 200
218 220 224 225 224 225 219 215 214 213 209 201 184 186 195 179 172 171 174 174 181 182 182 187 192 185 177 186 188 184 190 205 212 219 225 230 229 232 235 243 247 251 250 255 261 261 264 261 263 268 273 272 273 273 275 277 280 284 287 287 289 296 305 310 306 307 315 316 322 317 311 305 306 304 305 303 304 302 291 272 260 231 222 212 209
219 223 226 226 227 224 219 218 214 212 200 190 188 186 196 184 187 168 172 184 187 183 178 179 180 181 195 194 199 200 203 206 208 213 219 226 226 226 230 236 243 250 255 258 265 267 264 263 270 269 271 271 276 275 277 276 278 279 283 287 293 301 303 304 305 317 319 321 328 322 320 317 316 316 316 316 315 311 290 276 250 239 228 223 210